Flag for Canada Weather past 2 weeks in Dryden, Ontario, Canada

Now
-9 °F

Clear.


Feels Like: -31 °F
Forecast: -9 / 2 °F
Wind: 14 mph from Northwest

Location: Dryden Airport

Current Time: Mar 4, 2015 at 1:13:00 AM

Latest Report: Mar 4, 2015 at 12:00 AM


Visibility: 9 mi

Pressure: 29.90 "Hg

Humidity: 58%

Dew point: -20 °F

Location of DrydenLocation

Historic Weather in Dryden — Graph

°F

Dryden temperature yesterday

Maximum temperature yesterday: 21 °F (at 12:00 AM)
Minimum temperature yesterday: -8 °F (at 11:00 PM)
Average temperature yesterday: 10 °F

Past Weeks' High & Low Weather Summary

 TemperatureHumidityPressure
High25 °F (Feb 28, 3:00 PM)100% (Feb 24, 3:00 AM)30.69 "Hg (Feb 24, 3:00 AM)
Low-29 °F (Feb 22, 7:00 AM)31% (Feb 27, 2:00 PM)29.48 "Hg (Feb 24, 3:00 AM)
Average-2 °F70%30.14 "Hg
* Reported Feb 16 11:03 PM — Mar 3 11:00 PM, Dryden, Weather by CustomWeather, © 2015

Note: Actual official high and low records may vary slightly from our data, if they occured in-between our weather recording intervals... More about our weather records

Advertising

Dryden weather history for previous 24 hours

 ConditionsComfort  
Time TempWeatherWind HumidityBarometerVisibility
11:00 PM
Tue, Mar 3
-8 °FPassing clouds.14 mph64%29.88 "Hg9 mi
10:00 PM-6 °FPassing clouds.13 mph64%29.86 "Hg9 mi
9:00 PM-4 °FClear.16 mph65%29.83 "Hg9 mi
8:00 PM-2 °FPassing clouds.15 mph71%29.80 "Hg9 mi
7:45 PM-2 °FPartly cloudy.13 mph71%29.80 "Hg8 mi
7:00 PM0 °FLight snow. Overcast.14 mph78%29.78 "Hg1 mi
6:00 PM1 °FPassing clouds.20 mph65%29.73 "Hg9 mi
5:00 PM5 °FOvercast.15 mph55%29.70 "Hg9 mi
4:00 PM7 °FLight snow. Passing clouds.21 mph51%29.68 "Hg9 mi
3:45 PM7 °FLight snow. Passing clouds.22 mph51%29.68 "Hg6 mi
3:00 PM7 °FLight snow. Sunny.24 mph51%29.66 "Hg6 mi
2:02 PM9 °FLight snow. Sunny.25 mph51%29.65 "Hg4 mi
1:00 PM10 °FLight snow. Sunny.17 mph52%29.65 "Hg8 mi
12:01 PM9 °FLight snow. Sunny.25 mph61%29.65 "Hg4 mi
11:00 AM9 °FBroken clouds.20 mph66%29.63 "Hg4 mi
10:55 AM10 °FBroken clouds.23 mph61%29.63 "Hg5 mi
10:01 AM12 °FLight snow. Broken clouds.13 mph73%29.61 "Hg6 mi
9:01 AM18 °FLight snow. Mostly cloudy.14 mph79%29.59 "Hg3 mi
8:00 AM21 °FLight snow. Mostly cloudy.13 mph93%29.57 "Hg3 mi
7:00 AM21 °FLight snow. Overcast.12 mph93%29.59 "Hg2 mi
6:00 AM21 °FLight snow. Overcast.12 mph80%29.62 "Hg9 mi
5:00 AM21 °FLight snow. Overcast.13 mph74%29.65 "Hg9 mi
4:00 AM21 °FOvercast.13 mph68%29.66 "Hg9 mi
3:00 AM21 °FOvercast.15 mph68%29.72 "Hg9 mi
2:00 AM21 °FOvercast.15 mph63%29.75 "Hg9 mi
1:00 AM21 °FOvercast.14 mph58%29.79 "Hg9 mi
Weather by CustomWeather, © 2015

See weather overviewHow to use our weather pages